Location: Beaurecueil
(43.5122°N, 5.5450°E)
Time: 12:44:55
(UTC+00:00)

ATLAS 2AS CENTAUR R/B - Pass Details

Date: 18 September 2020
Orbit: 939 x 1273 km, 63.7° (Epoch: 27 October)

Event Time Altitude Azimuth Distance (km) Brightness Sun altitude
Rises 21:00:19 0° 217° (SW) 4,181 5.8 -33.7°
Reaches altitude 10° 21:03:05 10° 219° (SW) 3,238 5.1 -34.1°
Enters shadow 21:04:49 18° 220° (SW) 2,662 4.7 -34.3°
Exits shadow 21:11:57 71° 10° (N) 1,337 3.1 -35.3°
Drops below altitude 10° 21:18:58 10° 35° (NE) 3,234 5.3 -36.1°
Sets 21:21:43 0° 37° (NE) 4,176 5.9 -36.5°
